Location: ??????
(41.9535°N, 44.0963°E)
Time: 15:44:01
(UTC+00:00)

Daily predictions for brighter satellites

Satellite Brightness Start Highest point End
(mag) Time Altitude Azimuth Time Altitude Azimuth Time Altitude Azimuth
BREEZE-M DEB (TANK) 4.2 16:54:43 10° W 16:57:35 49° N 17:05:12 10° ENE
Resurs 01 Rocket 2.5 16:55:10 10° SE 16:59:08 34° ENE 17:03:07 10° N
Cosmos 1515 Rocket 4.4 16:57:52 10° SSE 17:01:44 32° E 17:05:39 10° NNE
Landsat 7 4.0 16:57:36 10° SSE 17:02:14 60° ENE 17:06:53 10° N
Cosmos 1980 Rocket 3.0 16:58:57 10° SSE 17:03:48 31° ESE 17:08:42 10° NE
ATLAS 2AS CENTAUR R/B 3.6 16:57:52 10° S 17:04:32 32° ESE 17:11:06 10° NE
NOSS 3-4 (A) 3.4 17:03:29 10° SW 17:09:08 87° WNW 17:15:15 10° NE
NOSS 3-4 (C) 3.4 17:03:31 10° SW 17:09:13 88° NW 17:15:20 10° NE
Okean-O 3.8 17:06:42 10° S 17:10:54 44° W 17:15:10 10° NNW
PSLV R/B 4.0 17:07:34 10° NNE 17:11:33 56° E 17:15:30 10° S
BREEZE-M DEB (TANK) 4.2 17:06:51 10° SW 17:11:58 80° SE 17:27:25 10° ENE
IGS 5A 3.6 17:07:52 10° S 17:12:01 78° WSW 17:16:11 10° NNW
Cosmos 2369 4.1 17:07:45 10° S 17:13:02 43° ESE 17:18:21 10° NE
ARGOS Delta rocket 4.3 17:13:35 10° NNE 17:18:59 55° E 17:24:14 10° S
MOS 1 4.3 17:15:43 10° SSE 17:21:19 71° ENE 17:26:58 10° N
Cosmos 1697 Rocket 2.7 17:16:50 10° SSW 17:22:30 89° ESE 17:28:12 10° NNE
Cosmos 1486 Rocket 4.0 17:17:26 10° SSW 17:22:43 77° ESE 17:28:00 10° NNE
Cosmos 2360 4.3 17:22:03 10° SSW 17:27:43 88° WNW 17:33:27 10° NNE
Cosmos 1536 2.9 17:27:08 10° N 17:31:09 62° E 17:34:48 12° SSE
ATLAS 3B R/B 4.4 17:25:23 10° NNW 17:31:11 24° NNE 17:37:09 10° E
ISS -1.5 17:29:13 10° NW 17:31:49 20° NNE 17:34:25 10° ENE
Okean 1 4.4 17:29:08 14° SE 17:31:52 27° E 17:35:17 10° NNE
BREEZE-M DEB (TANK) 3.8 17:31:18 10° NW 17:33:00 18° N 17:34:58 10° ENE
Cosmos 2297 Rocket 3.0 17:28:09 10° NW 17:33:32 48° WSW 17:38:55 10° S
H-2A R/B 2.5 17:29:44 10° N 17:33:47 61° WNW 17:37:50 10° SSW
MetOp-B 4.5 17:29:52 12° SE 17:34:35 52° ENE 17:39:47 10° N
RESURS DK-1 3.3 17:31:11 10° SSE 17:34:43 28° ESE 17:38:15 10° NE
EXPRESS MD2 3.8 17:28:52 10° WNW 17:35:13 68° NNE 17:37:56 15° ESE
Cosmos 1072 Rocket 4.4 17:31:30 10° S 17:37:35 75° E 17:43:42 10° N
SL-4 R/B 2.2 17:33:26 10° NW 17:38:03 86° SW 17:41:15 18° SE
Timation 2 Rocket 4.4 17:35:21 10° NNW 17:41:50 55° ENE 17:47:08 17° SE
SL-16 R/B 3.5 17:49:55 17° ESE 17:51:35 20° E 17:55:32 10° NE
Cosmos 1503 Rocket 4.0 17:46:43 10° SSW 17:51:58 82° ESE 17:57:19 10° NNE
SL-12 R/B (Aux Motor) 3.2 17:52:11 10° SW 17:54:43 58° SSE 17:55:07 44° ESE
ERS-1 Rocket 3.9 17:52:34 18° ESE 17:55:31 33° ENE 17:59:59 10° N
Cosmos 1184 Rocket 3.1 17:54:55 10° SSW 17:57:53 59° W 18:00:52 10° N
Cosmos 1975 4.2 17:57:32 10° NNE 18:00:52 24° ENE 18:02:11 20° ESE
Meteor 1-27 Rocket 4.3 17:57:58 10° SSW 18:03:39 61° WNW 18:09:29 10° N
SPOT 1/Viking Rocket 3.8 17:59:02 12° S 18:03:44 66° WSW 18:08:52 10° NNW
Cosmos 1933 Rocket 3.7 18:01:01 10° NNW 18:05:29 73° W 18:08:51 17° S
Cosmos 2034 Rocket 4.0 17:59:45 10° S 18:06:01 80° E 18:12:23 10° N
Cosmos 389 Rocket 3.0 18:03:08 10° NNW 18:06:35 54° W 18:08:54 19° S
Helios 1A Rocket 3.1 18:06:45 28° SE 18:08:37 54° ENE 18:12:33 10° N
CZ-2C R/B 4.3 18:04:44 10° NNE 18:09:14 39° E 18:11:18 26° SSE
Cosmos 2278 3.6 18:06:06 10° SSW 18:11:42 70° ESE 18:17:21 10° NNE
Cosmos 2292 Rocket 3.8 18:09:11 10° NNE 18:11:46 26° ENE 18:11:56 26° E
NOSS 2-1 (C) 3.9 18:12:34 27° E 18:12:34 27° E 18:14:41 10° NE
Cosmos 2219 4.3 18:07:22 10° NW 18:12:32 38° WSW 18:17:17 12° S
CZ-4B R/B 3.7 18:10:45 10° NNW 18:13:20 23° WNW 18:15:52 10° SW
SJ 16-02 1.3 18:11:51 10° SSW 18:16:13 86° WNW 18:20:36 10° NNE
Cosmos 2360 Rocket 4.0 18:17:17 14° E 18:17:17 14° E 18:19:47 10° ENE
Cosmos 1340 4.5 18:16:01 10° SW 18:19:20 30° WNW 18:22:41 10° NNW
Cosmos 2082 3.9 18:13:59 10° NNW 18:19:35 67° WSW 18:23:06 23° S
NOSS 2-1 (D) 3.4 18:22:47 37° E 18:22:47 37° E 18:25:16 10° NE
Cosmos 2263 Rocket 2.3 18:17:25 10° NNW 18:22:59 66° ENE 18:25:47 29° SE
Ariane Rocket 3.9 18:19:53 13° SSW 18:24:05 44° W 18:28:57 10° NNW
Cosmos 2344 3.9 18:19:45 10° SW 18:27:14 65° NW 18:34:49 10° NNE
USA 215 4.2 18:24:09 10° ENE 18:29:08 24° ESE 18:29:08 24° ESE
SPOT 5 3.0 18:27:18 29° SSE 18:30:03 79° ENE 18:35:13 10° N
ASTRO F (AKARI) 4.4 18:31:17 51° E 18:31:27 52° ENE 18:34:31 10° N
Terra 2.1 18:30:11 34° SE 18:32:01 55° ENE 18:36:40 10° N
OAO 3 Rocket 4.3 18:28:08 10° WSW 18:32:15 27° SSW 18:32:44 26° S
Resurs 01 Rocket 3.7 18:32:15 10° SW 18:35:41 22° W 18:39:07 10° NW
Cosmos 2195 Rocket 4.5 18:29:32 10° N 18:35:56 79° E 18:39:22 29° SSE
Cosmos 1346 Rocket 2.9 18:39:36 49° SE 18:40:16 56° E 18:44:12 10° NNE
Cosmos 2227 Rocket 4.2 18:36:19 10° NW 18:40:19 20° W 18:44:17 10° SW
Cosmos 1441 Rocket 4.5 18:41:10 25° ENE 18:41:10 25° ENE 18:43:46 10° NE
Cosmos 1428 Rocket 4.5 18:37:24 10° N 18:43:46 84° E 18:47:00 31° S
Cosmos 921 Rocket 4.3 18:42:34 10° NW 18:46:40 35° W 18:48:50 22° SSW
Cosmos 1980 Rocket 3.6 18:42:24 10° SW 18:47:39 39° WNW 18:52:57 10° N
Geosat FO 4.4 18:47:39 65° SSW 18:47:59 73° WSW 18:51:19 10° NNW
SL-24 R/B - RUBIN 2 3.7 18:48:16 10° NNW 18:52:38 64° NE 18:53:49 45° ESE
Cosmos 2228 Rocket 4.0 18:51:35 18° SW 18:54:40 47° WNW 18:59:05 10° N
ATLAS 2AS CENTAUR R/B 3.4 18:47:24 10° SW 18:55:08 63° NW 19:02:40 10° NNE
Cosmos 1869 Rocket 4.5 18:51:11 10° NNW 18:55:26 44° W 18:57:24 27° SSW
Cosmos 2322 Rocket 2.4 18:54:33 41° SE 18:55:51 48° ESE 19:01:14 10° NE
Spot 2 Rocket 3.9 18:55:31 31° SSW 18:57:44 55° W 19:02:42 10° NNW
Cosmos 2333 Rocket 3.8 19:01:21 18° E 19:01:21 18° E 19:04:22 10° ENE
Cosmos 1378 4.1 19:00:07 31° SW 19:01:20 43° W 19:04:50 10° N
Meteor 2-4 Rocket 3.9 18:58:20 26° SSW 19:01:46 75° W 19:07:27 10° N
Cosmos 1844 Rocket 3.9 18:57:35 10° N 19:02:30 30° NE 19:04:39 23° E
Okean 1-7 4.5 19:03:49 24° E 19:03:49 24° E 19:06:55 10° NE
Cosmos 1092 Rocket 4.2 18:58:14 10° NNW 19:04:20 64° W 19:07:25 30° SSW
ISS -3.4 19:05:39 10° NW 19:08:33 62° NNW 19:08:33 62° NNW
Cosmos 1634 Rocket 4.1 19:05:21 25° SSW 19:09:05 70° W 19:15:17 10° N
RESURS DK-1 4.5 19:09:11 10° WSW 19:12:39 26° NW 19:16:08 10° N
Cosmos 2142 Rocket 4.5 19:11:09 38° S 19:13:51 83° E 19:20:16 10° N
SL-4 R/B 4.3 19:14:32 10° W 19:16:42 14° WSW 19:16:42 14° WSW
ARIANE 5 R/B 2.9 19:16:07 52° SSW 19:16:57 63° W 19:21:25 10° NNW
Meteor 2-15 Rocket 4.3 19:16:03 40° S 19:18:24 88° E 19:24:31 10° N
Cosmos 1805 3.7 19:14:38 10° N 19:18:07 48° ENE 19:18:07 48° ENE
Cosmos 1707 Rocket 4.3 19:17:07 32° SW 19:18:44 47° WNW 19:23:01 10° N
Cosmos 2219 Rocket 3.8 19:21:25 19° E 19:21:25 19° E 19:24:28 10° NE
NOSS 2-1 (E) 4.0 19:21:03 38° WNW 19:21:32 41° NW 19:24:37 10° NNE
Cosmos 44 Rocket 3.3 19:17:39 10° NW 19:22:17 61° WSW 19:22:46 57° SSW
ATLAS 3B R/B 2.9 19:15:35 10° NNW 19:23:02 81° NE 19:26:10 40° SE
ATLAS CENTAUR R/B 3.6 19:20:01 10° N 19:23:53 23° NE 19:25:51 18° ENE
Cosmos 2227 4.4 19:18:49 10° NNW 19:24:30 62° WSW 19:26:02 45° SSW
Cosmos 1733 3.5 19:28:27 10° N 19:31:41 61° NNE 19:31:41 61° NNE
Cosmos 1655 Rocket 4.3 19:26:43 10° N 19:32:49 54° E 19:34:17 44° ESE
Cosmos 1766 4.3 19:29:41 10° N 19:32:50 36° ENE 19:32:50 36° ENE
Cosmos 1703 Rocket 4.1 19:34:00 47° ENE 19:34:00 47° ENE 19:37:52 10° NNE
ERS-1 Rocket 4.4 19:32:33 24° SW 19:34:16 29° W 19:38:40 10° NW
SL-16 R/B 2.6 19:31:42 23° SW 19:35:09 59° WNW 19:40:47 10° NNE
Cosmos 2237 4.2 19:34:31 43° SSW 19:36:28 85° WNW 19:42:14 10° NNE
CZ-4C R/B 4.4 19:30:44 10° NNW 19:36:52 30° NE 19:43:55 10° E
Gblst 52 Del rocket 4.3 19:30:31 10° SW 19:37:16 88° NW 19:43:12 10° NE
Meteor 2-10 3.8 19:41:04 10° N 19:46:19 80° E 19:46:48 71° SE
Meteor 1-4 Rocket 3.5 19:43:01 10° NNW 19:45:36 44° NW 19:45:36 44° NW
Geosat 3.9 19:48:25 65° SSW 19:48:53 69° WSW 19:53:54 10° NNW
Cosmos 1733 Rocket 4.2 19:46:08 10° NNW 19:50:08 34° W 19:50:38 33° WSW
Cosmos 1782 Rocket 4.3 19:46:42 10° N 19:50:31 42° ENE 19:50:31 42° ENE
COSMOS 2428 4.0 19:53:57 26° E 19:53:57 26° E 19:57:52 10° NE
Meteor 1-15 Rocket 4.2 19:48:57 10° N 19:54:37 70° E 19:55:26 61° SE
ERS-2 4.1 19:56:33 10° NE 19:58:05 21° NE 19:58:05 21° NE
Cosmos 2360 Rocket 2.2 19:59:00 56° SW 20:00:15 80° WNW 20:05:56 10° NNE
Cosmos 923 Rocket 3.9 19:56:05 10° NNW 20:01:26 76° WSW 20:01:50 71° SSW
Cosmos 1908 Rocket 3.7 19:57:30 10° NNW 20:01:28 69° NW 20:01:28 69° NW
Cosmos 1937 Rocket 3.3 20:02:32 79° SSE 20:02:45 82° ESE 20:08:03 10° NNE
Cosmos 2333 4.1 20:05:14 67° SE 20:05:26 68° ESE 20:11:02 10° NNE
Cosmos 2266 Rocket 3.9 19:59:20 10° N 20:05:36 83° W 20:06:45 61° S
Cosmos 2242 Rocket 3.7 20:06:29 75° NNE 20:06:29 75° NNE 20:10:42 10° N
Cosmos 2263 Rocket 4.1 20:02:49 10° WNW 20:06:16 17° W 20:07:29 16° WSW
ALOS 2 3.3 20:07:13 44° ENE 20:07:13 44° ENE 20:11:11 10° N
Cosmos 1470 4.1 20:05:49 10° N 20:08:30 32° NE 20:08:30 32° NE
Terra 3.9 20:09:04 15° WSW 20:10:05 16° W 20:12:59 10° NW
Cosmos 1867 4.4 20:12:29 36° E 20:12:29 36° E 20:16:31 10° NE
Cosmos 1726 3.2 20:08:19 10° N 20:10:52 42° NNW 20:10:52 42° NNW
USA 215 3.2 20:06:14 10° NE 20:12:49 89° NW 20:16:25 30° SW
ADEOS Rocket 3.4 20:18:35 41° E 20:19:41 46° ENE 20:25:20 10° N
Cosmos 2112 Rocket 3.9 20:16:41 10° NNW 20:22:01 78° WSW 20:22:07 78° WSW
Cosmos 2278 Rocket 4.2 20:17:50 10° N 20:22:01 21° NE 20:25:14 13° E
Cosmos 1680 Rocket 3.6 20:17:50 10° NNW 20:23:05 65° WSW 20:23:07 65° WSW
Cosmos 1626 4.4 20:28:53 18° NE 20:28:53 18° NE 20:30:18 10° NE
Cosmos 1842 4.2 20:28:37 46° NNW 20:28:37 46° NNW 20:31:29 10° N
Meteor 1-22 Rocket 4.2 20:21:51 10° N 20:27:51 89° E 20:28:37 70° SSE
Spot 4 4.0 20:28:07 66° W 20:28:07 66° W 20:32:40 10° NNW
Cosmos 1818 3.4 20:25:58 10° NW 20:31:28 83° WSW 20:31:31 83° SW
Iridium 4 Rocket 4.0 20:29:28 10° NNW 20:33:54 45° W 20:33:58 45° W
Sich 1 Rocket 4.3 20:35:20 10° N 20:39:04 47° NE 20:39:04 47° NE
Cosmos 1674 4.4 20:41:26 27° NE 20:41:26 27° NE 20:43:31 10° NNE
Cosmos 2322 Rocket 4.0 20:36:17 13° WSW 20:40:07 26° NW 20:44:48 10° N
Cosmos 2322 3.6 20:43:35 76° SW 20:44:03 87° WNW 20:49:49 10° NNE
Cosmos 2333 Rocket 2.4 20:43:20 54° WSW 20:44:19 63° WNW 20:49:57 10° NNE
Cosmos 1844 Rocket 3.4 20:41:16 10° NW 20:46:18 40° WSW 20:46:18 40° WSW
USA 267 3.7 20:42:28 22° ESE 20:46:48 60° NE 20:53:13 10° NW
Cosmos 1758 4.4 20:44:29 10° N 20:47:24 41° NNE 20:47:24 41° NNE
SL-08 ROCKET BODY 4.1 20:44:37 10° N 20:50:31 88° W 20:51:01 76° S
Cosmos 1461 3.6 20:54:13 10° NNW 20:57:40 52° NNE 20:57:40 52° NNE
ASTEX 1 3.6 20:54:28 10° NNE 20:59:03 60° ENE 20:59:03 60° ENE
Cosmos 1553 Rocket 3.8 20:58:59 68° SE 20:59:40 76° E 21:05:51 10° N
Cosmos 1244 Rocket 4.3 20:56:23 10° N 21:02:42 84° W 21:03:32 69° S
ATLAS CENTAUR R/B 2.5 20:58:19 10° NW 21:01:50 42° WNW 21:01:50 42° WNW
Cosmos 2219 Rocket 2.5 21:03:07 51° W 21:03:59 57° WNW 21:09:31 10° NNE
Nadezhda 2 Rocket 4.3 20:59:17 10° N 21:05:26 77° W 21:06:07 69° SSW
Cosmos 1674 Rocket 4.2 21:08:59 49° NE 21:08:59 49° NE 21:12:24 10° NNE
Cosmos 2150 Rocket 4.4 21:11:38 51° E 21:11:38 51° E 21:16:17 10° NNE
Cosmos 2221 Rocket 4.0 21:13:38 61° NNW 21:13:38 61° NNW 21:17:22 10° N
ATLAS 3B R/B 4.2 21:07:35 10° WNW 21:13:04 22° WSW 21:13:24 22° WSW
Cosmos 494 Rocket 4.1 21:11:31 10° NNW 21:16:37 64° ENE 21:16:51 63° E
Cosmos 1048 Rocket 4.0 21:11:37 10° NNW 21:16:47 71° ENE 21:16:55 71° E
CZ-2D R/B 4.3 21:14:58 10° ENE 21:17:12 12° E 21:18:15 12° E
NOSS 3-1 (A) 4.1 21:09:38 10° NNW 21:17:17 79° NE 21:21:35 34° SE
NOSS 0 Rocket 3.9 21:17:04 64° SE 21:17:36 67° ESE 21:23:49 10° NNE
Cosmos 1125 Rocket 3.5 21:23:02 69° E 21:23:02 69° E 21:28:03 10° NNE
Cosmos 1378 Rocket 3.9 21:23:48 63° NNE 21:23:48 63° NNE 21:27:34 10° N
NOSS 3-1 (C) 4.2 21:16:57 10° NW 21:24:35 64° WSW 21:26:41 50° S
CZ-4C R/B 3.0 21:18:43 10° NW 21:26:12 83° WSW 21:29:11 45° SSE
USA 308 4.0 21:29:18 38° ENE 21:29:18 38° ENE 21:31:58 10° NE
ERS-2 4.5 21:30:33 10° NNW 21:32:29 16° WNW 21:32:29 16° WNW
Cosmos 2237 Rocket 2.2 21:33:08 64° SE 21:33:23 65° ESE 21:39:02 10° NNE
Cosmos 1300 4.1 21:31:26 10° N 21:34:16 33° NE 21:34:16 33° NE
COSMOS 2428 3.4 21:35:55 39° W 21:37:11 45° WNW 21:42:38 10° NNE
Cosmos 1745 Rocket 3.8 21:33:09 10° N 21:39:24 87° W 21:40:22 66° S
SL-14 R/B 4.1 21:42:36 48° NNE 21:42:36 48° NNE 21:45:28 10° N
Cosmos 1975 Rocket 4.3 21:42:24 32° E 21:42:24 32° E 21:46:17 10° NNE
Resurs 1-4 Rocket 3.7 21:39:45 10° NE 21:43:53 23° E 21:44:51 22° ESE
PSLV R/B 4.4 21:41:55 10° N 21:45:55 43° WNW 21:45:55 43° WNW
Cosmos 1025 Rocket 4.5 21:46:23 28° E 21:46:23 28° E 21:50:01 10° NNE
USA 305 3.4 21:51:03 55° N 21:51:03 55° N 21:54:48 10° NE
Cosmos 332 Rocket 4.0 21:51:00 58° E 21:51:00 58° E 21:55:32 10° NNE
Cosmos 1943 Rocket 4.0 21:46:16 10° N 21:51:07 28° NE 21:55:56 10° ESE
Okean 2 Rocket 4.4 21:47:26 10° NNW 21:50:44 31° WNW 21:50:44 31° WNW
Cosmos 405 Rocket 4.1 21:53:19 32° NW 21:53:19 32° NW 21:55:53 10° N
Cosmos 2298 Rocket 4.1 21:54:04 59° W 21:54:32 61° WNW 21:59:49 10° NNE
ADEOS II 4.2 21:54:43 10° NE 21:57:53 16° E 21:59:49 13° ESE
Cosmos 1437 Rocket 4.0 21:55:56 10° NNW 21:58:15 33° NW 21:58:15 33° NW
EO 1 Delta rocket 4.0 21:55:44 10° NNE 22:00:28 72° E 22:00:57 66° SE
Cosmos 883 Rocket 4.4 21:59:27 60° SSW 22:00:45 87° W 22:07:07 10° N
Lacrosse 5 rocket 3.2 22:03:36 21° E 22:03:36 21° E 22:05:25 10° ENE
Cosmos 1626 4.3 22:03:15 19° NW 22:03:15 19° NW 22:05:08 10° NNW
Thor Agena Rocket 3.7 21:57:14 10° NNE 22:02:30 64° ESE 22:03:08 59° SE
GP-B 3.2 22:00:17 10° N 22:04:38 72° ENE 22:04:38 72° ENE
ATLAS 5 CENTAUR R/B 2.5 21:55:49 10° NW 22:05:22 65° WSW 22:05:22 65° WSW
ADEOS Rocket 4.2 22:05:31 24° W 22:05:31 24° W 22:10:09 10° NW
Cosmos 2278 Rocket 2.1 22:00:59 10° NNW 22:06:37 67° WSW 22:07:02 65° SW
Cosmos 839 Rocket 4.2 22:01:15 10° NNW 22:07:45 83° WSW 22:10:59 37° SSE
Cosmos 1953 3.5 22:06:24 10° NNW 22:09:10 35° NW 22:09:10 35° NW
SL-16 R/B 3.5 22:15:43 17° SE 22:20:14 44° ENE 22:26:07 10° N
SL-16 R/B 2.6 22:20:27 45° SE 22:21:34 52° ESE 22:27:04 10° NNE
USA 32 4.2 22:21:56 54° WSW 22:22:28 57° W 22:27:39 10° N
Cosmos 1980 4.3 22:24:18 38° W 22:25:44 46° WNW 22:31:11 10° NNE
Okean 1 Rocket 4.3 22:23:59 10° NNW 22:27:12 29° WNW 22:27:12 29° WNW
Lacrosse 5 1.7 22:27:49 69° SSW 22:28:22 79° SE 22:33:30 10° NE
Cosmos 371 Rocket 4.4 22:28:14 30° W 22:29:02 31° WNW 22:33:22 10° N
USA 267 3.5 22:29:44 43° SW 22:29:55 43° SW 22:36:06 10° WNW
USA 306 4.3 22:31:30 26° WNW 22:32:54 32° NNW 22:36:41 10° NE
Cosmos 1709 Rocket 4.2 22:27:44 10° NNW 22:33:40 53° W 22:34:54 46° SW
Meteor 2-10 Rocket 3.7 22:29:20 10° NNW 22:34:52 62° W 22:35:45 54° SW
Cosmos 2315 Rocket 4.3 22:33:42 43° SW 22:35:24 56° W 22:41:41 10° N
USA 307 4.2 22:35:30 27° WNW 22:36:51 34° NNW 22:40:42 10° NE
Cosmos 1269 Rocket 4.0 22:32:39 10° NNW 22:37:58 80° ENE 22:39:53 40° SSE
USA 229 DEB 4.3 22:34:23 10° NW 22:41:26 45° WSW 22:43:19 39° SSW
USA 229 4.3 22:34:28 10° NW 22:41:32 45° WSW 22:43:27 39° SSW
Cosmos 2184 Rocket 4.3 22:35:53 10° N 22:42:06 64° E 22:45:38 26° SSE
Cosmos 2084 Rocket 3.6 22:43:12 51° NW 22:43:14 51° NW 22:46:57 10° NNE
COSMOS 2455 3.4 22:42:28 36° SSE 22:44:27 48° ESE 22:50:13 10° NE
Meteor 1-24 Rocket 3.6 22:43:16 50° SSW 22:44:49 87° W 22:50:19 10° N
AQUA 4.4 22:41:10 10° NNE 22:45:48 49° E 22:47:12 37° SSE
MOZ.5/SAFIR/RUBIN 5/SL-8 4.3 22:56:16 40° W 22:56:21 40° W 23:00:49 10° NNW
CZ-2D R/B 2.0 22:52:29 10° NNE 22:57:52 81° WNW 22:59:34 45° SSW
Cosmos 1455 2.2 22:54:55 10° N 22:58:38 71° E 22:59:05 62° SE
SME Rocket 3.7 23:05:13 38° W 23:05:13 38° W 23:09:38 10° NNW
Cosmos 1455 Rocket 3.8 23:01:15 10° NNW 23:05:18 35° W 23:05:22 35° W
Cosmos 1271 Rocket 3.6 23:02:23 10° N 23:06:04 45° ENE 23:07:58 25° SE
Meteor 2-5 Rocket 4.2 23:07:46 35° WSW 23:09:37 47° WNW 23:15:06 10° N
Cosmos 292 Rocket 3.9 23:08:29 40° S 23:10:07 68° ESE 23:14:54 10° NNE
CRYOSAT 2 4.3 23:09:02 35° S 23:11:08 85° E 23:16:02 10° N
Cosmos 1536 Rocket 3.5 23:10:57 46° S 23:12:15 85° E 23:16:40 10° N
Nadezhda 1 Rocket 4.0 23:10:37 29° S 23:14:07 82° E 23:20:27 10° N
CZ-4C R/B 4.3 23:08:56 10° WNW 23:14:14 20° WSW 23:14:17 20° WSW
Cosmos 1943 4.3 23:12:32 20° SSE 23:15:50 37° ESE 23:21:03 10° NE
Cosmos 2237 Rocket 4.0 23:14:56 15° W 23:17:56 21° NW 23:22:15 10° N
SAR-Lupe-2 3.6 23:19:52 10° N 23:23:25 63° WNW 23:23:59 53° WSW
Resurs 1-4 Rocket 2.6 23:18:52 10° N 23:23:52 45° WNW 23:25:56 31° WSW
Cosmos 1025 Rocket 4.4 23:23:16 23° W 23:23:54 24° WNW 23:27:26 10° NNW
YAOGAN 11 4.3 23:32:10 35° SSW 23:33:45 54° W 23:38:10 10° NNW
Cosmos 1943 Rocket 2.5 23:29:39 10° NW 23:35:04 46° WSW 23:37:57 25° SSW
Helios 1B rocket 4.2 23:32:59 10° NE 23:36:26 26° E 23:39:50 10° SSE
Cosmos 1606 Rocket 4.4 23:32:55 10° N 23:37:14 50° E 23:41:28 10° SSE
IDEFIX/ARIANE 42P 2.5 23:32:01 10° N 23:37:18 79° WNW 23:40:17 27° SSW
ADEOS II 2.2 23:32:47 10° N 23:37:59 65° WNW 23:40:44 28° SW
UNK 4.1 23:37:16 32° SSW 23:38:48 44° W 23:43:14 10° NNW
Cosmos 2297 3.8 23:34:54 10° NNW 23:40:30 55° WSW 23:44:54 16° S
Lacrosse 5 rocket 2.3 23:39:06 23° W 23:40:58 37° NW 23:44:46 10° NNE
Cosmos 614 Rocket 4.0 23:36:37 10° NNW 23:41:45 63° WSW 23:45:49 16° S
GPS 2-04 Rocket1 4.3 23:42:57 16° SSE 23:42:57 16° SSE 23:44:49 10° ESE
Cosmos 2341 Rocket 4.4 23:40:03 10° N 23:46:26 69° E 23:52:47 10° SSE
Cosmos 2154 Rocket 4.2 23:42:20 10° NNW 23:48:31 55° W 23:52:57 19° SSW
COSMOS 2441 4.4 23:44:39 10° NNE 23:49:32 83° ESE 23:52:54 20° S
IRS-1D 3.6 23:44:42 10° NNE 23:50:04 81° ESE 23:54:01 18° S
Cosmos 1703 3.5 23:49:25 31° SW 23:50:59 52° W 23:54:50 10° N
Helios 1A 3.1 23:48:44 25° S 23:50:59 55° W 23:55:09 10° NNW
Cosmos 2251 Rocket 3.5 23:46:51 10° NNW 23:52:09 85° WSW 23:57:26 10° SSE
MOS 1 Rocket 3.9 23:53:59 26° SW 23:55:20 32° W 23:59:11 10° NNW
